Wind_Speed
3 4 6 7 6 4 3 4 0 2 3 3 3 4 8 9 5 9 12 15 16 17 14 23 28 32 31 29 29 32 32 29 26 24 22 16 16 16 16 14 12 11 9 8
4 5 7 5 4 4 2 5 2 3 0 4 2 2 3 9 4 3 9 11 15 16 11 18 26 29 33 37 35 34 34 31 30 26 26 20 17 15 14 13 11 11 10 8
6 5 7 5 4 3 1 5 3 3 4 3 4 3 3 6 3 3 3 5 9 16 15 12 21 27 30 34 37 39 38 34 32 29 26 22 18 15 15 14 14 13 10 8
4 2 7 4 3 5 1 7 5 2 2 1 2 3 3 7 8 9 8 7 9 11 14 11 19 24 28 33 42 41 39 36 34 30 30 27 24 18 19 18 16 14 12 11
6 6 4 3 6 7 6 6 6 4 2 3 3 4 4 3 7 12 17 14 12 13 13 15 20 27 31 31 34 39 41 38 38 34 31 26 23 20 19 18 15 15 13 12
3 1 3 7 6 8 5 5 8 5 3 2 2 4 5 3 4 4 12 15 17 16 15 14 26 27 28 29 32 32 39 43 42 38 34 31 27 23 19 16 16 16 14 14
4 3 5 4 2 3 5 6 2 3 2 5 5 4 2 7 10 9 13 16 16 17 16 10 17 25 26 28 30 31 37 39 43 40 38 35 32 27 24 20 17 17 16 16
4 3 5 9 3 2 4 7 5 5 5 4 2 6 1 5 8 12 15 8 12 15 15 15 15 25 27 31 33 35 35 37 41 41 38 38 36 31 27 22 19 18 19 19
5 0 5 4 4 2 3 5 3 7 2 4 1 6 4 20 19 21 19 13 5 12 14 14 17 25 28 32 34 36 36 38 38 44 40 38 36 33 32 27 21 16 16 19
1 5 3 5 6 6 7 1 3 4 4 3 3 4 4 16 17 19 20 17 13 10 11 12 17 23 28 31 33 36 38 39 45 44 44 40 37 34 35 30 27 22 17 15
2 4 4 5 8 5 6 5 6 5 3 5 4 2 6 8 12 14 17 19 18 12 11 11 12 15 22 25 29 31 32 35 34 36 38 41 38 37 35 35 32 28 23 18
4 5 5 2 5 5 4 3 3 4 3 2 3 3 7 7 11 13 15 19 20 11 4 4 7 13 19 22 24 29 31 31 35 38 40 39 41 39 37 36 35 33 30 25
1 3 4 4 5 5 6 5 3 4 3 1 4 4 6 9 13 15 16 18 18 19 15 10 8 6 9 11 18 22 25 26 27 28 31 33 37 39 40 39 37 35 33 31
6 4 3 6 4 3 4 4 4 3 3 5 3 1 5 9 11 14 16 17 16 17 18 14 10 9 9 5 8 19 21 24 25 27 31 32 36 41 42 41 40 38 36 34
5 4 3 4 5 3 3 2 3 3 1 3 7 4 1 4 7 7 10 15 17 16 17 16 15 13 18 15 7 8 23 29 30 30 31 36 40 39 39 38 41 41 40 38
4 3 3 2 3 3 3 6 7 5 3 4 2 3 3 2 2 9 11 13 14 14 16 14 13 20 20 20 19 17 7 19 29 33 34 35 35 35 38 40 40 39 40 39
3 4 3 3 2 1 2 0 3 2 2 2 3 1 5 5 7 8 8 9 11 11 11 12 12 17 20 22 22 19 15 11 13 24 31 34 35 35 35 38 37 39 40 39
3 3 2 3 1 4 4 3 6 4 1 1 3 3 4 4 6 4 8 10 10 11 11 10 15 16 20 23 26 21 18 11 12 13 24 31 36 37 32 30 34 37 37 37
2 4 3 3 2 2 3 4 3 1 4 2 2 6 8 11 7 4 10 11 10 11 15 15 18 16 14 21 24 20 17 15 13 9 6 9 22 29 31 35 33 33 32 35
4 6 4 2 3 3 3 1 4 2 3 5 5 5 6 9 4 1 14 15 15 20 20 20 22 20 16 16 22 20 15 14 15 13 12 11 8 9 27 35 35 32 31 33
3 3 4 2 1 5 2 5 4 4 2 3 5 4 4 2 4 13 15 16 19 18 20 22 22 19 21 17 19 19 19 17 13 13 12 11 10 11 9 12 24 31 30 30
4 4 3 3 2 5 2 1 3 1 2 3 2 3 5 6 11 14 17 14 18 23 23 23 22 23 22 17 17 16 17 21 17 14 10 12 12 12 14 12 15 18 25 30
2 5 4 6 4 1 2 1 1 2 2 3 4 5 11 9 9 12 14 18 22 20 23 23 22 24 23 17 15 17 18 19 17 15 9 12 11 10 11 13 17 19 22 28
3 4 3 3 0 4 6 4 4 5 4 5 7 8 11 12 12 14 14 17 24 25 22 21 23 24 24 20 20 18 18 17 18 17 17 16 13 13 14 13 16 19 22 25
4 5 5 4 7 4 6 6 7 7 7 6 7 9 10 12 12 13 16 20 23 27 25 22 23 24 27 24 26 22 18 14 16 15 19 17 16 13 14 20 20 20 23 25
6 7 6 6 7 5 5 9 8 7 6 6 5 6 12 14 11 18 20 23 25 27 27 25 24 25 28 27 26 24 22 15 12 14 14 17 16 14 22 19 23 23 22 23
Wind_Direction
190 110 188 190 191 179 131 102 51 246 256 229 255 200 187 182 192 181 187 185 185 194 180 188 183 190 193 197 199 195 192 192 196 203 207 214 209 216 219 217 213 215 212 220
61 204 205 185 189 183 166 113 260 294 82 133 39 21 187 164 195 144 187 195 190 185 186 192 188 185 190 198 204 201 202 197 199 204 205 197 193 195 201 211 218 213 215 222
149 214 168 180 181 146 147 138 197 228 17 49 107 33 159 168 146 284 249 207 201 193 188 189 190 189 191 194 200 205 205 202 204 203 204 193 186 192 197 204 212 211 209 221
181 168 157 163 203 138 210 195 175 238 72 281 115 292 270 194 200 222 249 215 203 198 189 186 189 190 193 198 204 205 206 208 202 197 191 193 189 191 203 206 213 214 218 215
232 153 167 167 202 167 211 163 168 186 150 70 330 67 251 156 221 216 224 225 208 209 198 181 190 190 195 197 200 202 206 206 201 197 197 195 193 199 199 208 213 217 224 223
194 194 121 200 202 186 115 84 41 48 83 52 221 125 314 313 300 312 224 220 217 204 203 185 185 191 196 195 198 198 199 204 206 203 203 202 198 197 196 203 209 216 230 228
14 20 332 38 132 93 92 83 31 45 61 198 305 74 216 308 350 307 266 221 210 210 202 179 184 188 192 189 192 195 200 202 210 210 210 210 207 204 206 211 215 220 230 231
131 353 7 333 37 153 155 156 150 158 171 190 344 158 89 355 325 351 10 234 210 209 200 200 193 189 191 190 191 195 202 206 209 212 216 216 217 212 211 213 215 228 233 238
132 123 332 39 22 42 170 73 184 108 19 88 256 339 308 350 359 2 4 11 280 217 211 204 198 195 191 193 195 196 202 207 212 213 217 217 217 220 213 211 214 224 232 240
87 92 17 314 18 23 94 92 74 14 129 146 30 73 327 343 341 339 347 349 332 293 216 200 201 191 195 197 197 198 204 206 211 214 215 218 218 222 220 214 216 222 230 237
72 72 332 37 19 340 8 20 39 108 94 150 127 263 19 332 337 338 341 340 335 314 216 203 200 196 193 196 195 198 203 207 210 212 215 218 223 223 224 221 218 223 228 234
360 106 68 74 293 347 53 60 102 121 204 62 120 215 44 1 347 354 352 357 360 8 70 119 173 177 186 191 196 199 201 207 211 214 214 218 224 225 227 227 225 223 226 231
8 36 86 17 331 2 46 337 91 90 80 95 129 215 47 6 8 360 360 10 19 23 29 34 47 82 158 193 201 205 206 210 211 211 212 216 220 228 229 231 231 227 224 227
79 74 119 172 136 143 73 341 354 96 103 156 198 242 336 11 8 359 2 10 25 34 29 24 26 38 54 55 207 215 214 214 212 213 214 217 222 228 233 234 234 233 230 227
81 101 73 76 86 90 146 155 320 339 162 150 166 179 309 347 11 8 6 16 19 26 29 19 11 18 27 27 344 247 222 216 213 215 215 221 227 230 232 234 238 238 236 234
7 125 117 101 43 56 190 219 219 239 281 283 147 188 255 262 41 34 26 16 16 16 17 17 12 11 12 8 360 1 314 230 217 215 217 221 222 225 230 234 237 240 242 239
59 121 94 163 8 357 24 329 183 218 275 307 251 122 347 7 22 26 13 22 10 3 5 7 7 3 357 354 352 342 336 291 248 231 224 223 227 226 228 233 233 236 240 242
112 89 84 158 32 178 240 272 250 189 79 36 111 81 4 339 316 332 30 4 360 349 349 355 355 358 358 353 357 356 353 343 270 259 231 225 224 228 225 228 231 236 236 236
41 119 79 122 144 308 315 15 29 13 243 5 327 44 358 337 305 210 34 2 343 330 330 333 344 344 353 357 356 0 2 19 33 14 331 241 228 229 230 228 232 234 231 234
61 74 107 119 109 193 232 183 337 336 264 15 27 34 24 349 360 234 352 341 334 331 332 331 336 337 342 352 351 351 350 14 12 357 329 309 298 262 231 232 231 233 234 234
18 20 119 132 156 290 112 294 303 163 210 41 359 354 14 328 258 298 314 316 316 313 320 327 328 325 331 337 346 347 338 340 354 355 348 333 303 290 277 245 238 233 230 234
171 134 166 128 117 270 183 108 197 175 297 320 293 303 308 295 294 300 306 306 306 309 314 316 318 315 320 324 331 338 329 327 334 340 351 348 337 307 285 280 275 253 242 233
231 182 184 179 210 135 169 203 176 151 183 290 283 284 312 299 292 297 300 306 304 297 297 304 308 308 307 307 318 322 327 324 320 319 340 338 328 326 318 290 279 280 262 235
229 159 146 30 175 197 198 241 203 186 224 252 260 298 301 299 303 300 293 289 294 295 289 291 297 299 298 300 303 308 318 318 319 319 332 325 326 326 335 293 273 279 260 239
199 137 175 263 262 247 233 193 186 215 218 239 253 273 284 288 287 297 296 291 288 290 289 285 281 286 291 296 296 305 321 320 313 319 318 317 317 337 322 311 299 293 277 253
189 176 172 217 210 162 187 184 182 193 214 220 240 272 291 308 282 296 291 290 288 286 285 280 276 282 288 289 288 304 314 317 312 303 311 314 323 338 307 304 299 297 292 287
Height
774 790 799 792 787 782 784 794 795 786 775 781 790 792 788 786 789 790 790 791 797 799 803 807 809 813 819 824 828 830 833 837 842 845 848 852 853 856 859 862 864 867 869 870
785 794 781 777 780 782 784 796 796 782 776 784 791 794 787 789 789 789 792 792 794 798 802 805 808 811 815 818 824 829 832 835 838 842 845 849 852 855 858 861 863 866 868 870
787 775 769 776 779 783 787 800 796 793 785 786 790 798 792 790 790 790 791 791 792 794 798 802 804 808 812 815 820 825 828 832 836 840 845 848 851 855 858 860 863 864 867 869
774 763 769 776 779 783 796 783 783 787 798 811 788 823 801 792 794 793 791 790 791 790 793 798 802 805 810 813 816 820 826 831 834 839 842 845 847 851 855 858 861 864 866 868
775 770 773 778 776 775 788 778 784 785 797 802 801 815 801 797 802 795 785 783 784 784 786 791 797 800 804 809 813 817 823 829 833 836 840 843 847 850 853 856 859 862 865 867
764 756 764 766 763 766 768 785 801 809 816 831 802 811 810 805 797 787 781 777 775 777 779 784 790 797 802 806 811 815 819 825 830 834 837 840 844 848 851 854 857 860 863 865
773 772 769 765 766 767 777 801 835 835 838 835 817 812 819 800 788 785 776 769 770 771 777 780 784 790 797 801 807 813 816 820 826 831 834 838 840 844 847 851 854 857 860 862
796 801 782 773 778 779 782 793 825 829 847 829 811 819 815 794 786 777 768 764 764 767 770 776 782 785 791 796 801 806 812 816 821 826 830 834 839 840 843 847 850 854 856 859
800 798 782 777 779 780 783 806 798 826 831 827 824 812 797 789 784 777 775 774 772 767 769 772 776 781 786 791 795 801 807 812 818 820 826 830 834 838 839 842 847 850 853 856
794 805 793 787 781 783 788 794 809 819 829 826 831 832 837 815 806 793 784 781 777 771 765 766 770 774 779 786 791 795 802 807 810 816 820 825 829 833 837 840 842 846 850 853
796 802 803 801 819 818 808 816 821 825 835 836 850 844 820 824 815 807 794 784 775 765 760 763 767 772 777 782 787 792 798 803 808 813 817 820 824 829 834 836 837 842 846 849
801 818 835 825 817 813 813 820 830 827 829 847 843 845 822 821 814 808 800 789 777 764 763 765 768 772 776 780 784 787 792 798 802 806 811 815 819 823 828 831 833 836 840 844
798 826 841 832 827 822 826 824 829 838 842 845 838 843 822 822 815 812 807 796 788 781 777 775 774 775 777 781 784 788 792 794 800 804 808 811 814 818 821 825 829 831 834 838
801 827 826 840 833 835 835 829 823 832 839 849 843 832 829 828 823 818 813 804 796 792 790 786 784 783 783 785 785 787 790 793 798 801 804 806 809 811 815 819 822 826 829 832
816 833 832 834 832 830 832 830 824 824 826 828 840 831 829 830 826 824 820 812 807 802 800 797 794 788 787 785 786 786 786 788 793 795 798 799 801 806 810 814 817 820 823 825
826 838 831 837 836 834 834 832 828 825 821 822 824 834 830 827 825 822 821 819 816 812 808 804 800 797 794 792 790 786 786 788 788 789 788 791 795 799 803 806 810 813 816 818
832 840 847 843 844 839 843 832 831 826 823 824 832 831 830 829 827 828 826 823 822 819 814 810 807 803 800 796 791 789 786 784 784 785 786 787 790 792 794 798 802 805 807 810
837 846 856 854 846 841 835 829 826 827 827 828 830 832 833 834 832 830 831 829 825 823 819 815 812 808 804 800 794 789 787 783 780 781 783 783 783 785 788 792 795 797 800 802
841 848 861 855 858 847 829 837 836 835 832 833 833 837 837 834 829 826 830 832 830 825 821 818 816 813 809 804 800 793 789 783 781 781 781 782 783 783 785 786 787 790 794 795
842 846 853 861 860 848 837 841 840 842 842 839 837 842 844 838 835 825 830 831 830 827 824 819 815 812 809 805 802 798 794 787 784 781 781 780 779 779 779 779 781 785 788 788
859 855 856 859 866 849 845 844 841 843 846 845 845 846 849 848 845 835 833 830 830 828 825 821 816 812 809 805 802 798 795 791 785 782 781 780 778 777 776 775 777 778 781 783
851 863 855 856 865 855 840 839 839 847 848 848 849 848 849 849 843 837 830 828 827 822 820 818 816 811 807 805 803 799 796 794 787 782 779 777 775 774 773 771 772 773 775 775
859 854 858 854 849 842 842 841 843 846 849 848 848 845 844 844 841 835 830 824 821 821 817 815 813 808 805 803 801 799 795 793 789 786 778 777 776 772 768 767 768 766 768 766
846 848 858 853 840 842 843 843 842 845 846 846 845 842 841 841 837 831 826 822 817 815 813 811 807 804 800 799 797 797 795 791 786 780 771 773 770 765 760 768 761 759 762 758
846 844 846 851 840 840 838 838 839 840 839 838 839 839 837 835 833 828 822 817 813 808 806 805 801 797 794 793 791 790 788 786 782 773 770 771 766 757 760 757 757 753 750 751
834 833 844 838 824 824 827 829 831 832 831 831 832 831 830 830 828 824 817 813 808 802 798 796 794 790 786 785 784 783 781 780 776 772 767 763 756 749 759 755 751 746 744 741